Location: Czernica
(51.0462°N, 17.2458°E)
Time: 20:32:09
(UTC+01:00)

ISS - Pass Details

Date: 29 January 2019
Orbit: 403 x 411 km, 51.6° (Epoch: 21 February)

Event Time Altitude Azimuth Distance (km) Brightness Sun altitude
Rises 19:53:06 0° 279° (W) 2,341 1.2 -30.8°
Reaches altitude 10° 19:55:12 10° 279° (W) 1,481 -0.1 -31.1°
Enters shadow 19:55:29 12° 280° (W) 1,365 -0.3 -31.2°
